timestamp,wind_dir_avg,wind_spd_avg,wind_spd_max_dir,wind_spd_gust,battery_voltage,lat,long
2021-07-01 00:04:00+00:00,189.0,5.0,211.0,6.32,13.13,47.59359,-54.27349
2021-07-01 00:14:01+00:00,191.0,4.56,214.0,5.64,12.65,47.59359,-54.27349
2021-07-01 00:24:01+00:00,163.0,4.89,159.0,5.68,12.65,47.59359,-54.27349
2021-07-01 00:34:01+00:00,210.0,5.48,212.0,6.05,12.65,47.59359,-54.27349
2021-07-01 00:44:01+00:00,207.0,4.29,218.0,5.12,12.65,47.59359,-54.27349
2021-07-01 00:54:01+00:00,199.0,4.56,216.0,5.59,12.65,47.59359,-54.27349
2021-07-01 01:04:01+00:00,209.0,4.22,218.0,4.99,12.65,47.59359,-54.27349
2021-07-01 01:14:01+00:00,204.0,4.0,216.0,5.01,12.65,47.59359,-54.27349
2021-07-01 01:24:01+00:00,164.0,3.9,201.0,4.54,12.65,47.59359,-54.27349
2021-07-01 01:34:01+00:00,168.0,4.01,156.0,4.82,12.65,47.59359,-54.27349
2021-07-01 01:44:01+00:00,195.0,4.23,215.0,5.18,12.65,47.59359,-54.27349
2021-07-01 01:54:01+00:00,177.0,3.98,212.0,4.67,12.65,47.59359,-54.27349
2021-07-01 02:04:01+00:00,151.0,4.08,149.0,4.71,12.65,47.59359,-54.27349
2021-07-01 02:14:00+00:00,176.0,4.2,165.0,4.6,12.57,47.59359,-54.27349
2021-07-01 02:24:00+00:00,195.0,4.6,209.0,5.32,12.57,47.59359,-54.27349
2021-07-01 02:34:00+00:00,190.0,4.32,208.0,4.85,12.57,47.59359,-54.27349
2021-07-01 02:44:00+00:00,200.0,4.42,214.0,5.44,12.57,47.59359,-54.27349
2021-07-01 02:54:00+00:00,156.0,4.02,153.0,4.69,12.57,47.59359,-54.27349
2021-07-01 03:04:00+00:00,213.0,4.74,217.0,5.33,12.57,47.59359,-54.27349
2021-07-01 03:14:01+00:00,152.0,3.94,150.0,4.68,12.57,47.59359,-54.27349
2021-07-01 03:24:01+00:00,158.0,3.62,147.0,4.34,12.57,47.59359,-54.27349
2021-07-01 03:34:01+00:00,194.0,4.13,216.0,5.0,12.57,47.59359,-54.27349
2021-07-01 03:44:01+00:00,170.0,3.72,150.0,4.52,12.57,47.59359,-54.27349
2021-07-01 03:54:01+00:00,178.0,3.48,213.0,4.67,12.57,47.59359,-54.27349
2021-07-01 04:04:01+00:00,203.0,3.84,216.0,4.87,12.57,47.59359,-54.27349
2021-07-01 04:14:00+00:00,199.0,4.46,217.0,5.61,12.57,47.59359,-54.27349
2021-07-01 04:24:00+00:00,179.0,3.73,213.0,4.48,12.57,47.59359,-54.27349
2021-07-01 04:34:00+00:00,221.0,4.98,222.0,5.42,12.57,47.59359,-54.27349
2021-07-01 04:44:00+00:00,213.0,3.61,220.0,4.64,12.57,47.59359,-54.27349
2021-07-01 04:54:00+00:00,225.0,4.73,228.0,5.05,12.57,47.59359,-54.27349
2021-07-01 05:04:00+00:00,226.0,3.44,229.0,3.97,12.57,47.59359,-54.27349
2021-07-01 05:14:00+00:00,189.0,1.84,228.0,3.14,12.57,47.59359,-54.27349
2021-07-01 05:24:00+00:00,153.0,1.86,136.0,2.61,12.57,47.59359,-54.27349
2021-07-01 05:34:00+00:00,128.0,2.4,122.0,3.15,12.57,47.59359,-54.27349
2021-07-01 05:44:00+00:00,199.0,1.55,201.0,1.68,12.57,47.59359,-54.27349
2021-07-01 05:54:00+00:00,197.0,1.61,197.0,1.77,12.57,47.59359,-54.27349
2021-07-01 06:04:00+00:00,188.0,1.48,198.0,1.63,12.57,47.59359,-54.27349
2021-07-01 06:14:01+00:00,185.0,1.79,183.0,1.98,12.49,47.59359,-54.27349
2021-07-01 06:24:01+00:00,179.0,2.37,179.0,2.74,12.49,47.59359,-54.27349
2021-07-01 06:34:01+00:00,173.0,2.04,175.0,2.18,12.49,47.59359,-54.27349
2021-07-01 06:44:01+00:00,185.0,1.65,186.0,1.81,12.49,47.59359,-54.27349
2021-07-01 06:54:01+00:00,177.0,1.94,177.0,2.12,12.49,47.59359,-54.27349
2021-07-01 07:04:01+00:00,157.0,1.96,160.0,2.25,12.49,47.59359,-54.27349
2021-07-01 07:14:00+00:00,161.0,1.55,157.0,1.71,12.49,47.59359,-54.27349
2021-07-01 07:24:00+00:00,134.0,1.64,132.0,1.81,12.49,47.59359,-54.27349
2021-07-01 07:34:00+00:00,92.0,0.77,87.0,1.07,12.49,47.59359,-54.27349
2021-07-01 07:44:00+00:00,69.0,1.8,67.0,2.3,12.49,47.59359,-54.27349
2021-07-01 07:54:00+00:00,102.0,1.73,95.0,2.47,12.49,47.59359,-54.27349
2021-07-01 08:04:00+00:00,86.0,1.29,105.0,1.88,12.49,47.59359,-54.27349
2021-07-01 08:14:01+00:00,78.0,1.77,85.0,2.46,12.41,47.59359,-54.27349
2021-07-01 08:24:01+00:00,71.0,2.65,70.0,3.06,12.41,47.59359,-54.27349
2021-07-01 08:34:01+00:00,64.0,3.57,71.0,4.06,12.41,47.59359,-54.27349
2021-07-01 08:44:01+00:00,80.0,4.18,82.0,6.79,12.41,47.59359,-54.27349
2021-07-01 08:54:01+00:00,69.0,5.77,67.0,7.54,12.41,47.59359,-54.27349
2021-07-01 09:04:01+00:00,73.0,4.72,69.0,6.62,12.41,47.59359,-54.27349
2021-07-01 09:14:01+00:00,74.0,4.87,84.0,6.17,12.41,47.59359,-54.27349
2021-07-01 09:24:01+00:00,74.0,5.29,72.0,7.87,12.41,47.59359,-54.27349
2021-07-01 09:34:01+00:00,71.0,6.74,70.0,8.0,12.41,47.59359,-54.27349
2021-07-01 09:44:01+00:00,70.0,6.64,75.0,7.42,12.41,47.59359,-54.27349
2021-07-01 09:54:01+00:00,67.0,5.65,70.0,6.51,12.41,47.59359,-54.27349
2021-07-01 10:04:01+00:00,64.0,6.06,68.0,7.73,12.41,47.59359,-54.27349
2021-07-01 10:14:01+00:00,70.0,5.97,65.0,6.91,12.49,47.59359,-54.27349
2021-07-01 10:24:01+00:00,62.0,6.27,66.0,7.04,12.49,47.59359,-54.27349
2021-07-01 10:34:01+00:00,67.0,7.18,68.0,7.93,12.49,47.59359,-54.27349
2021-07-01 10:44:01+00:00,67.0,6.78,66.0,7.65,12.49,47.59359,-54.27349
2021-07-01 10:54:01+00:00,68.0,5.88,66.0,7.02,12.49,47.59359,-54.27349
2021-07-01 11:04:01+00:00,64.0,6.52,65.0,7.47,12.49,47.59359,-54.27349
2021-07-01 11:14:01+00:00,61.0,6.84,60.0,8.34,12.57,47.59359,-54.27349
2021-07-01 11:24:01+00:00,67.0,6.63,64.0,8.14,12.57,47.59359,-54.27349
2021-07-01 11:34:01+00:00,64.0,6.89,68.0,7.67,12.57,47.59359,-54.27349
2021-07-01 11:44:01+00:00,70.0,7.27,66.0,8.69,12.57,47.59359,-54.27349
2021-07-01 11:54:01+00:00,65.0,6.91,65.0,7.73,12.57,47.59359,-54.27349
2021-07-01 12:04:01+00:00,67.0,7.05,72.0,7.76,12.57,47.59359,-54.27349
2021-07-01 12:14:00+00:00,72.0,6.42,71.0,7.46,13.05,47.59359,-54.27349
2021-07-01 12:24:00+00:00,70.0,5.37,69.0,6.4,13.05,47.59359,-54.27349
2021-07-01 12:34:00+00:00,76.0,4.86,73.0,7.92,13.05,47.59359,-54.27349
2021-07-01 12:44:00+00:00,76.0,4.55,76.0,6.64,13.05,47.59359,-54.27349
2021-07-01 12:54:00+00:00,70.0,5.45,71.0,6.42,13.05,47.59359,-54.27349
2021-07-01 13:04:00+00:00,66.0,6.29,65.0,6.87,13.05,47.59359,-54.27349
2021-07-01 13:14:01+00:00,69.0,6.72,66.0,7.99,13.29,47.59359,-54.27349
2021-07-01 13:24:01+00:00,69.0,8.39,70.0,9.16,13.29,47.59359,-54.27349
2021-07-01 13:34:01+00:00,67.0,7.39,72.0,8.23,13.29,47.59359,-54.27349
2021-07-01 13:44:01+00:00,61.0,7.62,58.0,9.25,13.29,47.59359,-54.27349
2021-07-01 13:54:01+00:00,62.0,8.4,63.0,10.11,13.29,47.59359,-54.27349
2021-07-01 14:04:01+00:00,65.0,8.91,67.0,10.31,13.29,47.59359,-54.27349
2021-07-01 14:14:01+00:00,66.0,9.59,73.0,12.6,13.37,47.59359,-54.27349
2021-07-01 14:24:01+00:00,60.0,9.63,60.0,11.06,13.37,47.59359,-54.27349
2021-07-01 14:34:01+00:00,53.0,11.12,51.0,12.17,13.37,47.59359,-54.27349
2021-07-01 14:44:01+00:00,61.0,9.75,62.0,11.67,13.37,47.59359,-54.27349
2021-07-01 14:54:01+00:00,54.0,10.6,48.0,11.98,13.37,47.59359,-54.27349
2021-07-01 15:04:01+00:00,54.0,11.2,52.0,12.33,13.37,47.59359,-54.27349
2021-07-01 15:14:01+00:00,53.0,11.32,55.0,12.7,13.37,47.59359,-54.27349
2021-07-01 15:24:01+00:00,57.0,10.55,59.0,12.29,13.37,47.59359,-54.27349
2021-07-01 15:34:01+00:00,52.0,11.55,50.0,13.18,13.37,47.59359,-54.27349
2021-07-01 15:44:01+00:00,60.0,11.68,57.0,12.88,13.37,47.59359,-54.27349
2021-07-01 15:54:01+00:00,63.0,11.08,59.0,12.77,13.37,47.59359,-54.27349
2021-07-01 16:04:01+00:00,64.0,11.19,66.0,12.39,13.37,47.59359,-54.27349
2021-07-01 16:14:01+00:00,64.0,9.46,66.0,11.83,13.68,47.59359,-54.27349
2021-07-01 16:24:01+00:00,68.0,10.77,63.0,12.48,13.68,47.59359,-54.27349
2021-07-01 16:34:01+00:00,67.0,11.18,62.0,12.94,13.68,47.59359,-54.27349
2021-07-01 16:44:01+00:00,67.0,9.47,71.0,10.97,13.68,47.59359,-54.27349
2021-07-01 16:54:01+00:00,70.0,10.77,73.0,12.35,13.68,47.59359,-54.27349
2021-07-01 17:04:01+00:00,71.0,9.0,79.0,11.9,13.68,47.59359,-54.27349
2021-07-01 17:14:01+00:00,69.0,8.56,67.0,9.91,13.68,47.59359,-54.27349
2021-07-01 17:24:01+00:00,66.0,10.5,71.0,12.38,13.68,47.59359,-54.27349
2021-07-01 17:34:01+00:00,68.0,11.06,70.0,12.2,13.68,47.59359,-54.27349
2021-07-01 17:44:01+00:00,64.0,10.55,67.0,12.16,13.68,47.59359,-54.27349
2021-07-01 17:54:01+00:00,66.0,10.47,64.0,11.46,13.68,47.59359,-54.27349
2021-07-01 18:04:01+00:00,65.0,9.47,64.0,10.74,13.68,47.59359,-54.27349
2021-07-01 18:14:01+00:00,59.0,10.02,57.0,11.38,13.76,47.59359,-54.27349
2021-07-01 18:24:01+00:00,63.0,10.0,66.0,11.14,13.76,47.59359,-54.27349
2021-07-01 18:34:01+00:00,62.0,10.17,65.0,11.29,13.76,47.59359,-54.27349
2021-07-01 18:44:01+00:00,62.0,10.08,58.0,11.19,13.76,47.59359,-54.27349
2021-07-01 18:54:01+00:00,64.0,9.12,63.0,10.44,13.76,47.59359,-54.27349
2021-07-01 19:04:01+00:00,57.0,10.73,63.0,12.06,13.76,47.59359,-54.27349
2021-07-01 19:14:01+00:00,58.0,11.02,59.0,12.98,13.84,47.59359,-54.27349
2021-07-01 19:24:01+00:00,60.0,11.52,59.0,12.89,13.84,47.59359,-54.27349
2021-07-01 19:34:01+00:00,61.0,10.55,62.0,11.76,13.84,47.59359,-54.27349
2021-07-01 19:44:01+00:00,55.0,9.61,52.0,12.07,13.84,47.59359,-54.27349
2021-07-01 19:54:01+00:00,60.0,10.88,55.0,12.14,13.84,47.59359,-54.27349
2021-07-01 20:04:01+00:00,56.0,10.68,53.0,11.94,13.84,47.59359,-54.27349
2021-07-01 20:14:01+00:00,56.0,11.26,52.0,12.31,13.68,47.59359,-54.27349
2021-07-01 20:24:01+00:00,55.0,11.03,53.0,12.58,13.68,47.59359,-54.27349
2021-07-01 20:34:01+00:00,59.0,10.74,58.0,12.03,13.68,47.59359,-54.27349
2021-07-01 20:44:01+00:00,58.0,9.98,57.0,11.71,13.68,47.59359,-54.27349
2021-07-01 20:54:01+00:00,57.0,11.96,53.0,13.26,13.68,47.59359,-54.27349
2021-07-01 21:04:01+00:00,59.0,11.08,59.0,12.61,13.68,47.59359,-54.27349
2021-07-01 21:14:01+00:00,58.0,10.95,55.0,12.92,13.53,47.59359,-54.27349
2021-07-01 21:24:01+00:00,60.0,12.1,60.0,13.18,13.53,47.59359,-54.27349
2021-07-01 21:34:01+00:00,62.0,11.93,56.0,13.05,13.53,47.59359,-54.27349
2021-07-01 21:44:01+00:00,57.0,12.42,56.0,13.84,13.53,47.59359,-54.27349
2021-07-01 21:54:01+00:00,57.0,11.73,56.0,13.46,13.53,47.59359,-54.27349
2021-07-01 22:04:01+00:00,61.0,10.3,57.0,12.54,13.53,47.59359,-54.27349
2021-07-01 22:14:01+00:00,65.0,10.6,66.0,11.86,13.37,47.59359,-54.27349
2021-07-01 22:24:01+00:00,59.0,10.23,57.0,12.24,13.37,47.59359,-54.27349
2021-07-01 22:34:01+00:00,60.0,11.62,52.0,13.2,13.37,47.59359,-54.27349
2021-07-01 22:44:01+00:00,58.0,10.51,58.0,11.85,13.37,47.59359,-54.27349
2021-07-01 22:54:01+00:00,61.0,10.26,61.0,13.17,13.37,47.59359,-54.27349
2021-07-01 23:04:01+00:00,60.0,12.15,56.0,14.48,13.37,47.59359,-54.27349
2021-07-01 23:14:01+00:00,58.0,11.27,59.0,12.36,12.89,47.59359,-54.27349
2021-07-01 23:24:01+00:00,55.0,10.85,56.0,13.54,12.89,47.59359,-54.27349
2021-07-01 23:34:01+00:00,58.0,12.42,57.0,13.68,12.89,47.59359,-54.27349
2021-07-01 23:44:01+00:00,51.0,12.85,48.0,14.74,12.89,47.59359,-54.27349
2021-07-01 23:54:01+00:00,51.0,12.13,53.0,13.36,12.89,47.59359,-54.27349
